This is the latest recevied weather packets stored in our database for station/object K7FRY. If no packets are shown the sender has not sent any weather packets the latest 10 day(s).
| Time | Temp. | Humidity | Pressure | Rain* | Wind** | Luminosity | Snow |
|---|---|---|---|---|---|---|---|
| 1777860443 | 28.33° C | 18% | 1010.8 hPa | 0 mm | - | 0 W/m² | - |
| 1777860140 | 28.33° C | 18% | 1010.2 hPa | 0 mm | - | 1 W/m² | - |
| 1777859836 | 28.33° C | 18% | 1010.6 hPa | 0 mm | - | 3 W/m² | - |
| 1777859533 | 28.89° C | 18% | 1010.6 hPa | 0 mm | - | 8 W/m² | - |
| 1777859229 | 28.89° C | 18% | 1010.3 hPa | 0 mm | - | 12 W/m² | - |
| 1777858926 | 28.89° C | 18% | 1010.6 hPa | 0 mm | - | 19 W/m² | - |
| 1777858624 | 29.44° C | 18% | 1010.5 hPa | 0 mm | - | 26 W/m² | - |
| 1777858321 | 29.44° C | 18% | 1010.5 hPa | 0 mm | - | 32 W/m² | - |
| 1777858017 | 29.44° C | 18% | 1010.3 hPa | 0 mm | - | 39 W/m² | - |
| 1777857715 | 29.44° C | 17% | 1010.6 hPa | 0 mm | - | 38 W/m² | - |
| 1777857412 | 29.44° C | 17% | 1010.7 hPa | 0 mm | - | 35 W/m² | - |
| 1777857108 | 30° C | 17% | 1010.9 hPa | 0 mm | - | 32 W/m² | - |
| 1777856804 | 30° C | 17% | 1010.7 hPa | 0 mm | - | 37 W/m² | - |
| 1777856500 | 30.56° C | 17% | 1010.6 hPa | 0 mm | - | 63 W/m² | - |
| 1777856197 | 30.56° C | 17% | 1010.7 hPa | 0 mm | - | 77 W/m² | - |
| 1777855894 | 30.56° C | 17% | 1010.7 hPa | 0 mm | - | 101 W/m² | - |
| 1777855592 | 31.11° C | 17% | 1010.7 hPa | 0 mm | - | 105 W/m² | - |
| 1777855289 | 31.11° C | 17% | 1010.8 hPa | 0 mm | - | 118 W/m² | - |
| 1777854985 | 31.11° C | 17% | 1010.6 hPa | 0 mm | - | 152 W/m² | - |
| 1777854682 | 31.67° C | 17% | 1010.3 hPa | 0 mm | - | 168 W/m² | - |
| 1777854379 | 32.22° C | 20% | 1010.7 hPa | 0 mm | - | 209 W/m² | - |
| 1777854076 | 32.22° C | 26% | 1010.7 hPa | 0 mm | - | 241 W/m² | - |
| 1777853774 | 31.67° C | 27% | 1010.8 hPa | 0 mm | - | 274 W/m² | - |
| 1777853469 | 31.11° C | 27% | 1010.6 hPa | 0 mm | - | 303 W/m² | - |
| 1777853167 | 31.11° C | 26% | 1010.7 hPa | 0 mm | - | 321 W/m² | - |
* Rain latest hour (hover to see other rain measurements)
** Current wind speed in m/s (hover to see current wind gust speed)